Probability
0 0 0 0 0 0 0 0 0 0 0 0 0 0 0 0 0 0 0 0 0 0 0 0 0 0 0 0 0 0 1 1 1 0 0 0 0 0 0 1 0 0 0
0 0 0 0 0 0 0 0 0 0 0 0 0 0 0 0 0 0 0 0 0 0 0 0 0 0 0 0 0 0 0 0 0 0 0 0 0 0 0 1 0 0 0
0 0 0 0 0 0 0 0 0 0 0 0 0 0 0 0 0 0 0 0 0 1 0 0 0 0 0 0 0 0 0 0 0 0 0 0 0 0 0 0 0 0 0
0 0 0 0 0 0 0 0 0 0 0 0 0 0 0 0 0 0 0 0 0 0 0 0 0 0 0 0 0 0 0 0 0 0 0 0 0 0 0 0 0 0 0
0 0 0 0 0 0 0 0 0 0 0 0 0 0 0 0 0 0 0 0 0 0 0 0 0 0 0 0 0 0 0 0 0 0 0 0 0 0 0 0 0 0 0
0 0 0 0 0 0 0 0 0 0 0 0 0 0 0 0 0 0 0 0 0 0 0 0 0 0 0 0 0 0 0 0 0 0 0 0 0 0 0 0 0 0 0
0 0 0 0 0 0 0 0 0 0 0 0 0 0 0 0 0 0 0 0 0 0 0 0 0 0 0 0 0 0 0 0 0 0 0 0 0 0 0 0 0 0 0
0 0 0 0 0 0 0 0 0 0 0 0 0 0 0 0 0 0 0 0 0 0 0 0 0 0 0 0 0 0 0 0 0 0 0 0 0 0 0 0 0 0 0
0 0 0 0 0 0 0 0 0 0 0 0 0 0 0 0 0 1 1 1 1 1 1 0 0 0 0 0 0 0 0 0 0 0 0 0 0 0 0 0 0 0 0
0 0 0 0 0 0 0 0 0 0 0 0 0 0 0 0 0 1 1 1 0 0 0 0 0 0 0 0 0 0 0 0 0 0 0 0 0 0 1 1 1 0 0
0 0 0 0 0 0 0 0 1 0 0 0 0 0 0 0 0 0 0 0 0 0 0 0 0 0 0 0 0 0 0 0 0 0 0 0 0 0 1 2 1 0 0
0 0 0 0 0 0 0 0 0 0 0 0 0 0 0 0 0 0 0 0 0 0 0 1 0 0 0 0 0 0 0 0 0 0 0 0 0 0 1 2 2 0 0
0 0 0 0 0 0 0 0 0 0 0 0 0 0 0 0 0 0 0 0 0 0 0 0 0 0 0 0 0 0 0 0 0 0 0 0 0 0 1 1 1 0 1
1 1 0 0 0 0 0 0 0 0 0 0 0 0 0 0 0 0 0 0 0 0 0 0 0 0 0 0 0 0 0 0 0 0 0 0 0 0 0 1 1 1 2
0 0 0 0 0 0 0 0 0 0 0 0 0 0 0 0 0 0 0 0 0 0 0 0 0 0 1 1 1 0 0 0 0 0 0 0 0 0 1 2 2 2 3
0 0 0 0 0 0 0 0 0 0 0 0 0 0 0 0 0 0 0 0 0 0 0 0 0 0 1 2 2 1 2 1 1 0 0 0 0 0 1 2 3 3 3
0 0 0 0 0 0 0 0 0 0 0 0 0 0 0 0 0 0 0 0 0 0 0 0 0 0 0 1 1 2 2 2 1 0 0 0 0 0 1 2 3 3 2
0 0 0 0 0 0 0 0 0 0 0 0 0 0 0 0 0 0 0 0 0 0 0 0 0 0 0 0 0 1 1 1 1 0 0 0 0 0 0 1 2 2 1
0 0 1 1 1 0 0 0 0 0 0 0 0 0 0 0 0 0 0 0 0 0 0 0 0 0 0 0 0 0 0 0 0 0 0 0 0 0 0 0 1 1 0
0 0 1 2 2 1 1 0 0 0 0 0 0 0 0 0 0 0 0 0 0 0 0 0 0 0 0 0 0 0 0 0 0 0 0 0 0 0 0 0 0 0 0
0 0 1 1 2 2 1 0 0 0 0 0 0 0 0 0 0 0 0 0 0 0 0 0 0 0 0 0 0 0 0 0 0 0 0 0 0 0 0 0 0 0 0
0 0 0 0 1 1 1 0 0 0 0 0 0 0 0 0 0 0 0 0 0 0 0 0 0 0 0 0 0 0 0 0 0 0 0 0 0 0 0 0 0 0 0
0 0 0 0 0 0 0 0 0 0 0 0 0 0 0 0 0 0 0 0 0 0 0 0 0 0 0 0 0 0 0 0 0 0 0 0 0 0 0 0 0 0 0
0 0 0 0 0 0 0 0 0 0 0 0 0 0 0 0 0 0 0 0 0 0 0 0 0 0 0 0 0 0 0 0 0 0 0 0 0 0 0 0 0 0 0
0 0 0 0 0 0 0 0 0 0 0 0 0 0 0 0 0 0 0 0 0 0 0 0 0 0 0 0 0 0 0 0 0 0 0 0 0 0 0 0 0 0 0
0 0 0 0 0 0 0 0 0 0 0 0 0 0 0 0 0 0 0 0 0 0 0 0 0 0 0 0 0 0 0 0 0 0 0 0 0 0 0 0 0 0 0
Wind_Speed
4 4 6 5 6 7 7 8 8 8 8 8 9 9 9 9 9 9 9 9 8 9 9 9 8 8 8 8 9 8 9 8 8 7 7 7 6 6 6 4 2 5 7
4 5 5 5 6 7 7 8 8 8 8 9 9 9 9 9 9 8 8 8 9 9 9 9 8 8 8 8 8 9 9 9 8 7 6 6 7 7 7 5 5 5 6
4 5 5 6 6 7 7 8 8 8 9 9 9 9 9 9 9 8 8 8 8 9 9 9 8 8 8 8 8 9 9 8 7 5 2 4 7 8 7 6 6 7 6
5 5 6 6 6 7 7 8 9 9 9 9 10 10 10 9 9 9 8 9 8 8 8 8 8 8 8 8 8 8 8 8 7 1 2 6 6 8 7 7 7 7 6
5 5 6 5 6 7 7 8 9 9 9 9 9 9 9 9 9 8 9 9 8 9 8 8 8 8 8 8 8 8 8 7 5 3 6 6 6 7 7 7 7 7 7
5 5 7 6 7 8 8 8 8 9 9 9 9 8 9 9 9 9 8 8 8 8 8 8 8 9 8 8 8 8 8 6 3 6 6 6 6 8 8 8 8 7 7
6 6 7 7 7 8 8 8 8 8 8 8 8 8 9 9 9 8 8 8 8 8 8 8 8 9 9 9 9 9 7 4 5 5 5 6 8 9 8 8 7 7 7
5 5 7 8 7 7 7 8 8 7 8 8 9 8 8 8 8 9 9 9 8 8 8 8 9 9 9 10 10 10 8 4 5 5 6 7 9 8 8 8 8 7 6
4 5 5 6 7 7 7 8 8 7 7 8 8 8 8 8 8 8 8 9 9 9 9 9 9 9 10 10 10 10 9 6 4 5 6 6 8 8 8 7 7 7 6
4 5 5 5 5 5 7 8 7 7 7 7 7 7 6 6 7 7 8 9 8 9 9 9 9 10 10 10 9 9 6 2 5 6 5 7 9 8 8 8 7 7 7
4 4 4 5 5 5 5 6 5 6 5 4 5 5 2 4 5 5 10 9 9 9 9 9 9 9 8 9 8 6 3 4 6 5 6 9 9 8 8 8 8 7 7
4 4 4 4 5 5 4 4 3 4 4 3 4 4 4 5 5 5 9 9 9 9 9 8 7 5 3 5 5 2 3 5 5 5 7 10 10 9 9 8 8 8 8
3 3 4 4 4 4 3 3 2 3 3 4 4 4 3 4 3 4 4 5 5 4 5 5 4 4 5 5 4 4 5 5 4 5 8 10 10 10 9 9 8 8 8
3 3 3 3 3 4 3 3 2 2 2 3 4 5 4 3 3 4 3 4 3 3 4 4 3 6 6 6 6 6 6 4 4 4 7 11 10 10 10 9 9 8 8
3 3 4 3 3 4 4 2 2 3 3 4 3 3 4 3 3 4 4 3 4 4 4 4 4 6 6 6 6 7 6 6 6 6 5 11 11 10 10 9 9 8 8
3 4 4 3 3 3 3 3 3 3 3 3 3 3 4 3 3 3 4 3 4 4 4 4 5 5 5 5 6 6 6 6 6 6 5 7 10 11 11 11 10 9 9
3 4 4 3 3 3 3 4 3 2 2 3 2 3 3 3 3 3 3 4 3 4 4 4 6 4 4 5 6 6 5 6 6 6 5 4 5 9 11 12 11 11 10
3 4 4 3 3 3 3 3 2 3 3 2 2 2 3 4 4 3 3 3 3 3 3 3 3 4 4 4 5 4 4 4 6 5 5 5 4 4 8 12 12 12 11
3 3 4 3 3 3 3 3 2 3 2 2 2 2 2 3 3 3 3 3 3 3 3 3 4 3 4 4 4 4 4 5 4 5 6 6 6 5 5 7 9 11 12
3 4 4 4 3 4 2 2 2 2 2 2 2 2 3 2 3 3 2 3 3 3 3 3 4 3 3 3 4 4 4 4 4 5 5 5 5 6 6 6 5 7 10
4 4 4 4 4 3 2 1 1 2 1 2 2 2 2 2 2 2 2 3 2 2 3 4 3 4 3 2 2 3 4 4 4 3 4 4 5 5 5 5 5 4 4
4 4 4 3 3 3 2 1 1 2 1 2 2 2 2 2 2 2 2 2 2 2 3 3 2 1 2 0 0 1 2 3 3 4 3 3 4 3 4 5 6 5 4
4 4 3 3 4 3 3 2 2 2 2 2 2 2 2 2 2 2 2 2 2 2 2 2 2 1 0 1 2 2 2 2 2 3 4 3 4 3 3 4 5 5 5
5 4 4 4 3 3 3 2 2 1 1 2 1 2 3 2 2 2 2 2 2 2 2 1 1 0 1 1 1 2 3 3 1 2 2 3 3 3 4 3 4 5 5
5 4 4 4 3 3 2 2 1 1 1 2 2 3 3 3 2 2 2 1 2 2 2 1 1 0 1 1 1 1 1 1 2 1 1 1 2 3 3 3 3 3 4
5 4 4 4 3 3 3 3 2 2 2 2 2 3 2 3 2 2 2 2 1 1 1 1 1 1 0 1 1 1 1 1 1 1 1 1 1 2 3 3 2 3 2
Wind_Direction
60 56 53 47 64 62 63 65 69 67 68 69 71 73 76 76 77 83 82 80 76 78 81 84 83 82 82 82 80 77 76 76 76 79 81 78 78 77 74 73 89 97 86
65 72 72 53 64 63 63 66 70 68 66 72 72 72 75 77 74 78 82 79 78 77 76 76 77 78 79 79 79 78 76 75 72 71 78 89 83 77 75 65 45 68 80
72 76 85 68 68 67 67 67 71 72 72 71 70 73 74 74 72 77 81 80 79 80 78 74 73 74 76 78 79 78 75 74 74 73 92 91 90 79 73 75 72 71 75
77 69 68 69 71 70 72 72 71 73 73 70 69 70 69 67 65 71 78 80 79 79 79 75 71 70 74 77 79 79 77 75 70 68 78 68 75 76 67 74 77 76 75
80 74 76 67 69 73 73 72 71 72 74 71 69 69 68 66 62 64 71 77 80 79 75 72 71 70 71 75 76 77 78 75 67 54 61 62 65 70 66 76 78 75 70
87 84 85 71 72 75 74 71 72 74 73 70 70 69 69 65 61 62 67 74 78 81 77 72 73 72 71 72 73 73 73 73 78 63 62 63 69 71 71 73 71 71 66
84 81 87 76 70 71 73 72 71 73 75 71 68 67 66 63 60 62 69 75 76 79 81 78 74 74 72 69 69 69 66 62 66 69 66 64 66 68 69 68 65 65 63
86 86 92 95 73 64 66 71 70 70 74 74 69 66 61 59 58 61 66 69 73 75 76 77 75 74 72 69 68 66 63 35 73 67 66 65 65 67 66 64 59 57 58
94 94 85 93 101 98 78 67 67 67 72 74 71 66 61 61 60 59 65 68 71 74 75 76 76 75 74 71 69 68 64 36 53 56 60 62 66 68 65 65 61 56 55
101 99 94 88 82 85 95 80 67 65 68 72 71 67 69 85 80 69 75 75 75 75 75 78 79 78 76 73 69 65 57 30 57 57 52 61 61 63 62 59 61 60 60
109 104 99 92 85 75 73 85 87 88 82 103 103 94 100 77 78 88 71 76 80 81 79 78 79 80 89 86 73 65 52 55 61 53 51 55 54 56 57 54 57 60 59
117 112 104 93 91 86 75 79 69 76 79 70 64 69 61 65 66 75 93 84 86 89 91 81 86 105 103 94 97 92 66 61 57 59 57 53 50 50 51 50 52 56 54
109 109 109 98 93 83 84 70 63 73 79 76 68 74 70 74 89 87 100 109 104 105 91 100 112 80 75 71 66 70 61 54 55 54 52 48 47 47 49 51 52 54 53
117 113 108 97 98 89 79 74 71 82 78 75 69 64 65 65 68 76 77 77 81 80 73 74 72 77 72 72 69 66 67 60 60 61 54 44 42 45 47 49 52 55 54
120 129 115 106 88 89 80 77 85 83 73 80 69 72 73 71 72 79 81 77 77 81 87 78 77 76 72 67 63 61 60 58 58 60 64 52 45 45 44 47 51 54 55
117 113 117 121 100 92 102 98 81 80 86 69 70 70 71 72 76 80 87 79 72 70 72 79 78 76 72 69 67 62 55 56 60 59 62 68 58 46 41 45 49 54 58
112 116 112 108 105 95 88 84 87 83 80 77 70 55 72 75 75 77 77 80 76 83 84 78 84 80 78 76 71 62 56 47 53 54 51 47 65 63 47 42 50 54 57
127 121 118 128 119 103 95 98 94 81 68 74 79 64 69 80 77 78 78 82 82 84 89 90 86 87 80 73 68 61 61 56 49 49 53 55 46 48 62 51 48 51 53
143 133 127 121 117 113 111 111 87 88 79 75 82 78 73 78 82 90 79 85 95 93 88 91 87 84 86 82 79 70 62 60 51 47 52 49 51 46 54 69 62 54 51
154 142 129 126 129 117 122 123 112 96 92 79 77 77 63 71 77 87 103 97 96 101 99 101 104 98 88 92 87 80 70 71 61 49 44 47 43 44 44 46 61 68 57
161 159 144 151 139 131 124 127 119 115 106 92 76 74 85 88 88 92 98 94 92 99 106 115 116 116 105 103 117 111 103 80 68 61 46 43 50 42 44 49 49 49 65
163 163 155 152 150 136 120 120 109 103 92 84 90 91 88 88 95 104 113 113 112 113 127 123 134 127 114 99 309 190 141 129 86 65 59 48 46 53 47 46 51 52 43
171 169 165 161 152 145 140 135 141 135 151 135 115 96 79 78 86 90 98 116 126 145 136 138 143 151 122 88 4 330 341 53 98 96 59 57 52 46 51 49 49 51 50
174 174 172 160 151 147 152 160 163 174 130 105 108 110 116 106 102 100 109 120 130 123 137 153 130 89 336 52 85 16 8 22 320 113 107 68 54 46 42 47 45 49 49
170 173 174 162 157 156 161 148 185 163 139 137 138 129 129 113 108 111 116 126 121 126 136 120 106 326 342 347 15 58 69 66 324 341 78 87 91 69 49 41 42 41 42
168 169 175 175 164 168 183 182 186 162 163 156 156 142 142 129 125 117 120 125 119 117 126 121 126 146 341 359 341 357 334 351 15 2 27 73 66 76 69 58 42 43 37